This is the latest recevied weather packets stored in our database for station/object W2EH. If no packets are shown the sender has not sent any weather packets the latest 10 day(s).
| Time | Temp. | Humidity | Pressure | Rain* | Wind** | Luminosity | Snow |
|---|---|---|---|---|---|---|---|
| 1777937330 | 26.67° C | 59% | 1007.4 hPa | 0 mm | - | 63 W/m² | - |
| 1777937027 | 26.67° C | 58% | 1007.7 hPa | 0 mm | - | 37 W/m² | - |
| 1777936724 | 27.22° C | 58% | 1007.6 hPa | 0 mm | - | 36 W/m² | - |
| 1777936421 | 27.22° C | 58% | 1007.3 hPa | 0 mm | - | 55 W/m² | - |
| 1777936117 | 27.22° C | 58% | 1007.6 hPa | 0 mm | - | 55 W/m² | - |
| 1777935815 | 27.22° C | 57% | 1007.7 hPa | 0 mm | - | 41 W/m² | - |
| 1777935513 | 27.22° C | 57% | 1007.6 hPa | 0 mm | - | 70 W/m² | - |
| 1777935209 | 27.22° C | 58% | 1007.6 hPa | 0 mm | - | 105 W/m² | - |
| 1777934907 | 27.22° C | 58% | 1007.5 hPa | 0 mm | - | 44 W/m² | - |
| 1777934604 | 27.78° C | 57% | 1007.7 hPa | 0 mm | - | 134 W/m² | - |
| 1777934300 | 27.22° C | 58% | 1008 hPa | 0 mm | - | 57 W/m² | - |
| 1777933996 | 27.22° C | 57% | 1007.9 hPa | 0 mm | - | 57 W/m² | - |
| 1777933693 | 27.78° C | 56% | 1007.9 hPa | 0 mm | - | 89 W/m² | - |
| 1777933389 | 27.78° C | 57% | 1007.9 hPa | 0 mm | - | 85 W/m² | - |
| 1777933088 | 27.22° C | 58% | 1007.9 hPa | 0 mm | - | 117 W/m² | - |
| 1777932784 | 27.78° C | 56% | 1008.2 hPa | 0 mm | - | 271 W/m² | - |
| 1777932481 | 28.33° C | 55% | 1008.2 hPa | 0 mm | - | 242 W/m² | - |
| 1777932178 | 27.78° C | 56% | 1008 hPa | 0 mm | - | 556 W/m² | - |
| 1777931875 | 27.78° C | 57% | 1007.8 hPa | 0 mm | - | 559 W/m² | - |
| 1777931572 | 27.78° C | 57% | 1008.1 hPa | 0 mm | - | 475 W/m² | - |
| 1777931267 | 27.78° C | 55% | 1008.2 hPa | 0 mm | - | 555 W/m² | - |
| 1777930964 | 27.78° C | 56% | 1008.4 hPa | 0 mm | - | 596 W/m² | - |
| 1777930661 | 27.78° C | 56% | 1008.2 hPa | 0 mm | - | 620 W/m² | - |
| 1777930357 | 27.78° C | 57% | 1008.5 hPa | 0 mm | - | 617 W/m² | - |
| 1777930055 | 27.78° C | 57% | 1008.3 hPa | 0 mm | - | 645 W/m² | - |
* Rain latest hour (hover to see other rain measurements)
** Current wind speed in m/s (hover to see current wind gust speed)